Location: Moscow
(44.4414°N, 72.7154°W)
Time: 06:04:29
(UTC+00:00)

Envisat - Visible Passes

Search period start: 14 October 2024 00:00
Search period end: 24 October 2024 00:00
Orbit: 762 x 764 km, 98.3° (Epoch: 13 October)

Date Brightness Start Highest point End Pass type
(mag) Time Alt. Az. Time Alt. Az. Time Alt. Az.
14 Oct 5.0 07:32:38 10° NNE 07:34:49 24° NE 07:34:49 24° NE visible
14 Oct 4.3 09:12:06 10° N 09:14:57 23° NW 09:14:57 23° NW visible
15 Oct 5.8 06:55:57 10° NE 06:56:45 13° NE 06:56:45 13° NE visible
15 Oct 4.1 08:34:03 10° N 08:36:53 32° NNW 08:36:53 32° NNW visible
16 Oct 4.6 07:56:27 10° NNE 07:58:49 28° NNE 07:58:49 28° NNE visible
16 Oct 4.7 09:36:51 10° NNW 09:38:57 15° NW 09:38:57 15° NW visible
17 Oct 5.5 07:19:18 10° NNE 07:20:45 18° NE 07:20:45 18° NE visible
17 Oct 4.4 08:58:20 10° N 09:00:53 24° NNW 09:00:53 24° NNW visible
18 Oct 4.5 08:20:27 10° N 08:22:49 28° N 08:22:49 28° N visible
19 Oct 5.1 07:43:00 10° NNE 07:44:45 21° NNE 07:44:45 21° NNE visible
19 Oct 4.7 09:22:52 10° NNW 09:24:53 18° NW 09:24:53 18° NW visible
20 Oct 5.8 07:06:05 10° NE 07:06:40 13° NE 07:06:40 13° NE visible
20 Oct 4.5 08:44:37 10° N 08:46:48 24° NNW 08:46:48 24° NNW visible
21 Oct 4.9 08:06:54 10° NNE 08:08:44 23° NNE 08:08:44 23° NNE visible
21 Oct 5.0 09:47:54 10° NNW 09:48:52 12° NW 09:48:52 12° NW visible
22 Oct 5.5 07:29:36 10° NNE 07:30:39 16° NNE 07:30:39 16° NNE visible
22 Oct 4.7 09:08:59 10° N 09:10:47 19° NNW 09:10:47 19° NNW visible
23 Oct 4.8 08:30:58 10° N 08:32:43 21° N 08:32:43 21° N visible
